Location: Claremont
(51.3500°N, 0.3500°W)
Time: 05:34:15
(UTC+00:00)

Daily predictions for brighter satellites

Satellite Brightness Start Highest point End
(mag) Time Altitude Azimuth Time Altitude Azimuth Time Altitude Azimuth
SL-4 R/B 2.7 00:01:56 10° W 00:05:36 33° SSW 00:06:38 29° S
Cosmos 1825 2.1 00:04:51 33° SSE 00:06:10 61° E 00:09:34 10° NNE
Cosmos 2154 Rocket 4.3 00:07:15 21° SSE 00:11:25 59° E 00:17:36 10° NNE
Cosmos 2297 Rocket 2.2 00:09:01 19° SSW 00:13:13 85° WNW 00:18:55 10° NNE
Okean 1 Rocket 3.0 00:09:14 10° N 00:13:36 86° E 00:16:03 26° SSE
NOSS 3-2 (A) 4.4 00:12:22 19° SSE 00:14:48 27° ESE 00:19:43 10° ENE
Cosmos 2219 4.1 00:14:01 21° SSE 00:17:07 36° ESE 00:22:12 10° NE
Aureole 1 Rocket 4.4 00:17:04 18° SE 00:18:42 23° E 00:22:12 10° NE
PSLV R/B 3.7 00:14:43 10° N 00:18:55 66° WNW 00:21:22 24° SSW
ATLAS CENTAUR R/B 4.2 00:21:05 10° NW 00:23:00 14° NNW 00:24:59 10° NNE
Cosmos 1354 Rocket 4.2 00:25:11 20° SW 00:28:58 72° WNW 00:34:18 10° NNE
Resurs 1-4 Rocket 4.4 00:30:34 10° ENE 00:33:04 13° E 00:35:32 10° ESE
H-2A R/B 2.1 00:29:13 10° NNE 00:33:30 72° WNW 00:35:54 24° SSW
Cosmos 2084 Rocket 3.3 00:31:32 22° SW 00:34:16 84° SE 00:38:24 10° NE
Cosmos 1975 Rocket 4.0 00:37:42 19° SSE 00:40:22 40° E 00:44:30 10° NNE
Cosmos 292 Rocket 4.4 00:40:12 22° SSE 00:42:55 44° ESE 00:47:28 10° NE
Cosmos 2263 Rocket 2.9 00:42:06 20° SSE 00:45:30 41° ESE 00:50:42 10° NE
BlueWalker 3 2.1 00:43:33 10° W 00:47:17 72° NNW 00:51:02 10° ENE
Orbus 7S? 3.1 00:45:32 10° WNW 00:48:12 63° NNE 00:51:28 10° ESE
BREEZE-M DEB (TANK) 3.7 00:45:34 10° WSW 00:48:35 70° S 00:56:57 10° E
Cosmos 1455 Rocket 3.1 00:45:36 10° N 00:50:05 88° ENE 00:52:57 22° S
Cosmos 332 Rocket 4.1 00:48:13 19° SW 00:51:39 63° WNW 00:56:32 10° NNE
Okean 2 Rocket 4.4 00:49:14 10° NNW 00:53:03 28° W 00:55:21 18° SW
Cosmos 2074 Rocket 4.3 00:49:56 19° SSW 00:54:23 61° WNW 01:00:34 10° N
Cosmos 1680 Rocket 4.1 00:51:06 10° NNW 00:56:15 57° ENE 01:01:22 10° SE
Cosmos 2341 Rocket 4.4 00:56:40 16° SSE 01:01:31 56° E 01:07:35 10° NNE
Cosmos 1818 3.6 00:56:31 10° NW 01:02:03 88° NE 01:07:31 10° SE
Helios 1A Rocket 2.7 01:02:09 20° SSE 01:04:41 84° ENE 01:08:31 10° NNW
Cosmos 1025 Rocket 3.2 01:02:30 23° SSW 01:05:06 65° WNW 01:09:25 10° N
USA 234 4.1 01:00:24 10° ENE 01:06:45 55° N 01:13:06 10° WNW
Cosmos 1461 4.0 01:06:44 20° SSE 01:08:34 28° ESE 01:11:57 10° ENE
COSMOS 2455 4.1 01:03:45 10° WSW 01:09:21 38° NW 01:15:00 10° NNE
Cosmos 990 Rocket 4.1 01:08:07 19° SW 01:11:48 70° WNW 01:16:57 10° NNE
TIMED 4.5 01:10:13 23° SSW 01:12:53 80° ESE 01:17:13 10° NNE
Cosmos 1892 4.4 01:11:24 13° WSW 01:13:31 21° WNW 01:16:15 10° NNW
CENTAUR R/B 2.6 01:11:48 16° SW 01:16:39 89° SE 01:24:02 10° NE
SL-19 R/B 3.6 01:13:48 10° NNE 01:16:52 70° ESE 01:18:11 28° S
In-Cosmos 22 Rocket 4.3 01:14:28 19° S 01:18:46 83° E 01:24:38 10° NNE
IDEFIX/ARIANE 42P 3.6 01:16:17 10° NNE 01:21:14 39° E 01:25:41 12° SSE
SL-16 R/B 2.7 01:17:22 10° NW 01:22:42 42° WSW 01:26:33 18° S
Cosmos 1869 3.0 01:23:30 10° N 01:27:13 88° W 01:29:53 18° S
Cosmos 1603 4.4 01:21:59 10° NNW 01:27:40 58° NE 01:33:20 10° SE
Cosmos 2237 Rocket 4.1 01:25:56 10° WNW 01:28:23 13° W 01:30:46 10° WSW
GEOS 3 Rocket 3.8 01:27:53 10° NE 01:33:03 69° NW 01:37:53 11° WSW
CZ-4C R/B 3.6 01:30:46 10° W 01:35:29 38° NNW 01:41:24 10° NE
Cosmos 2082 3.7 01:31:20 18° SSW 01:35:40 87° ESE 01:41:20 10° NNE
Cosmos 2218 Rocket 4.1 01:31:20 15° S 01:36:36 78° E 01:42:48 10° NNE
CZ-2D R/B 3.2 01:31:45 10° NNE 01:36:46 39° E 01:41:39 10° SSE
Cosmos 1943 3.2 01:31:09 10° NNW 01:36:49 88° WSW 01:42:26 10° SSE
Cosmos 2227 Rocket 3.1 01:32:03 10° WSW 01:37:23 43° NW 01:42:49 10° NNE
CZ-2C R/B 3.0 01:33:09 10° SSE 01:38:23 67° ENE 01:43:47 10° N
Cosmos 1437 Rocket 4.4 01:35:43 10° SSE 01:38:59 27° E 01:42:14 10° NE
Cosmos 1825 4.4 01:39:19 10° W 01:40:46 12° WNW 01:42:12 10° NW
Cosmos 2366 rocket 4.0 01:37:03 15° S 01:42:22 87° E 01:48:39 10° N
Cosmos 372 Rocket 4.0 01:40:51 17° SSW 01:44:54 87° WNW 01:50:11 10° NNE
MOZ.5/SAFIR/RUBIN 5/SL-8 3.9 01:43:48 15° S 01:47:36 59° WSW 01:52:11 10° NNW
Meteor 1-11 4.4 01:49:40 16° SSW 01:54:26 68° WNW 02:00:15 10° N
NPP 3.8 01:50:51 10° NNE 01:56:16 72° ESE 02:01:12 12° S
Cosmos 2297 Rocket 4.1 01:53:39 10° W 01:58:06 23° NW 02:02:35 10° NNE
ADEOS II 3.1 01:53:16 10° NNE 01:58:12 40° E 02:03:06 10° SSE
Cosmos 2228 3.1 01:55:45 10° NNW 02:00:03 64° W 02:03:53 12° S
Cosmos 2219 3.9 01:55:55 11° SW 02:01:08 48° NW 02:06:35 10° NNE
Aureole 1 Rocket 4.0 01:58:23 13° WSW 02:01:32 38° NW 02:05:58 10° NNE
Cosmos 1544 Rocket 4.0 01:57:31 10° NNW 02:01:48 47° W 02:05:22 14° SSW
Cosmos 1937 Rocket 3.6 01:59:45 15° SSW 02:04:13 72° WNW 02:09:29 10° NNE
NOSS 3-2 (A) 3.5 01:59:43 11° SW 02:04:54 72° NW 02:11:25 10° NE
Cosmos 1606 3.5 02:01:49 10° NNW 02:05:01 31° W 02:07:22 16° SSW
H-2A R/B 3.4 02:03:59 10° NNE 02:08:00 82° ESE 02:11:32 13° SSW
H-2A R/B 4.5 02:06:54 10° NNW 02:08:24 12° NW 02:09:53 10° WNW
ALOS 3.9 02:04:45 10° NE 02:08:45 28° E 02:12:43 10° SSE
Cosmos 1898 Rocket 4.0 02:04:35 13° SW 02:09:07 51° WNW 02:14:11 10° NNE
SL-16 R/B 3.0 02:04:20 10° SSE 02:10:30 66° ENE 02:16:41 10° NNW
Cosmos 2227 4.4 02:05:48 13° SSW 02:10:56 68° ESE 02:16:41 10° NE
NOSS 3-2 (C) 3.4 02:06:42 14° SSW 02:11:23 73° SE 02:17:45 10° NE
SL-8 Rocket 4.4 02:07:58 13° SSW 02:13:20 53° WNW 02:19:25 10° N
Resurs 1-4 Rocket 2.2 02:08:25 10° NNE 02:13:44 78° ESE 02:19:00 10° SSW
Cosmos 1812 4.0 02:19:33 10° N 02:22:57 38° ENE 02:26:18 10° SE
BlueWalker 3 2.2 02:21:55 10° WNW 02:25:40 71° N 02:29:24 10° E
Cosmos 2263 Rocket 3.0 02:24:09 10° WSW 02:29:26 42° NW 02:34:44 10° NNE
Cosmos 1727 Rocket 4.2 02:23:30 10° NNW 02:29:44 62° W 02:35:59 10° S
Cosmos 921 Rocket 3.0 02:29:55 10° NNW 02:34:07 63° WSW 02:38:15 10° S
COSMOS 2441 4.4 02:30:20 10° NNE 02:35:10 89° W 02:39:59 10° SSW
Cosmos 1606 Rocket 3.6 02:32:53 10° NNW 02:37:20 71° W 02:41:43 10° S
Cosmos 724 4.2 02:38:00 10° NW 02:43:50 79° SW 02:49:39 10° SSE
Cosmos 1461 3.6 02:42:49 10° WSW 02:46:35 43° NW 02:50:19 10° NNE
Cosmos 1536 Rocket 4.3 02:43:32 10° SW 02:47:45 42° WNW 02:51:59 10° N
Cosmos 1844 Rocket 2.8 02:42:56 10° SSW 02:48:30 77° ESE 02:54:05 10° NNE
USA 234 3.5 02:42:55 10° ESE 02:49:28 78° NNE 02:56:02 10° WNW
Cosmos 1726 Rocket 3.6 02:48:04 10° NNW 02:52:30 67° W 02:56:52 10° S
Cosmos 2058 3.9 02:48:56 10° SSE 02:52:48 46° E 02:56:44 10° NNE
Cosmos 1238 Rocket 3.3 02:51:18 10° N 02:54:46 50° ENE 02:57:49 10° SSE
Meteor 1-28 Rocket 3.4 02:54:34 10° S 02:58:00 46° W 03:01:27 10° NNW
IDEFIX/ARIANE 42P 3.5 02:55:56 10° N 03:00:44 37° WNW 03:05:30 10° SW
